Time,TemperatureF,DewpointF,PressureIn,WindDirection,WindDirectionDegrees,WindSpeedMPH,WindSpeedGustMPH,Humidity,HourlyPrecipIn,Conditions,Clouds,dailyrainin,SoftwareType,DateUTC
2013-08-14 00:04:00,59.9,55.4,30.21,SE,145,2.3,2.3,85,0.00,RA,FEW,0.00,WeatherDisplay:10.37,2013-08-13 23:04:00,
2013-08-14 00:09:00,59.9,55.4,30.21,SE,145,2.3,2.3,85,0.00,RA,FEW,0.00,WeatherDisplay:10.37,2013-08-13 23:09:00,
2013-08-14 00:14:00,59.5,55.0,30.21,ESE,122,0.0,0.4,85,0.00,BKN,FEW,0.00,WeatherDisplay:10.37,2013-08-13 23:14:00,
2013-08-14 00:19:00,59.5,55.0,30.21,ESE,122,0.0,0.1,85,0.00,BKN,FEW,0.00,WeatherDisplay:10.37,2013-08-13 23:19:00,
2013-08-14 00:24:00,59.4,55.2,30.20,ENE,78,0.0,0.0,86,0.00,BKN,FEW,0.00,WeatherDisplay:10.37,2013-08-13 23:24:00,
2013-08-14 00:29:00,59.5,55.3,30.20,ESE,122,0.0,0.0,86,0.00,BKN,FEW,0.00,WeatherDisplay:10.37,2013-08-13 23:29:00,
2013-08-14 00:34:00,59.2,55.0,30.20,ESE,122,0.0,0.0,86,0.00,BKN,FEW,0.00,WeatherDisplay:10.37,2013-08-13 23:34:00,
2013-08-14 00:39:00,59.2,55.0,30.19,ESE,122,0.0,0.0,86,0.00,BKN,FEW,0.00,WeatherDisplay:10.37,2013-08-13 23:39:00,
2013-08-14 00:44:00,59.2,55.0,30.19,SE,145,0.0,0.0,86,0.00,BKN,FEW,0.00,WeatherDisplay:10.37,2013-08-13 23:44:00,
2013-08-14 00:49:00,59.2,55.0,30.19,ESE,122,0.0,0.0,86,0.00,BKN,FEW,0.00,WeatherDisplay:10.37,2013-08-13 23:49:00,
2013-08-14 18:04:00,72.9,62.9,29.66,ESE,122,4.0,4.0,71,0.00,CLR,FEW,0.00,WeatherDisplay:10.37,2013-08-14 17:04:00,
2013-08-14 18:05:00,72.9,62.9,30.11,WSW,258,6.6,6.6,71,0.00,CLR,FEW,0.00,WeatherDisplay:10.37,2013-08-14 17:05:00,
2013-08-14 18:10:00,72.3,62.8,30.11,West,280,3.5,3.6,72,0.00,BKN,FEW,0.00,WeatherDisplay:10.37,2013-08-14 17:10:00,
2013-08-14 18:15:00,72.3,62.8,30.11,WSW,258,8.1,8.1,72,0.00,BKN,FEW,0.00,WeatherDisplay:10.37,2013-08-14 17:15:00,
2013-08-14 18:20:00,72.5,63.4,30.11,WSW,258,6.9,6.9,73,0.00,BKN,FEW,0.00,WeatherDisplay:10.37,2013-08-14 17:20:00,
2013-08-14 18:25:00,72.5,63.0,30.11,WSW,258,4.6,4.6,72,0.00,BKN,FEW,0.00,WeatherDisplay:10.37,2013-08-14 17:25:00,
2013-08-14 18:30:00,72.3,62.8,30.11,SE,145,5.9,5.9,72,0.00,BKN,FEW,0.00,WeatherDisplay:10.37,2013-08-14 17:30:00,
2013-08-14 18:35:00,72.1,63.0,30.11,East,100,3.5,3.5,73,0.00,BKN,FEW,0.00,WeatherDisplay:10.37,2013-08-14 17:35:00,
2013-08-14 18:40:00,72.0,62.8,30.10,WSW,258,5.8,5.8,73,0.00,BKN,FEW,0.00,WeatherDisplay:10.37,2013-08-14 17:40:00,
2013-08-14 18:45:00,72.0,62.8,30.10,WSW,258,4.6,4.6,73,0.00,BKN,FEW,0.00,WeatherDisplay:10.37,2013-08-14 17:45:00,
2013-08-14 18:51:00,72.0,62.8,30.10,WSW,258,3.5,3.9,73,0.00,BKN,FEW,0.00,WeatherDisplay:10.37,2013-08-14 17:51:00,
2013-08-14 18:56:00,72.0,62.8,30.10,ESE,122,3.5,3.5,73,0.00,BKN,FEW,0.00,WeatherDisplay:10.37,2013-08-14 17:56:00,
2013-08-14 19:01:00,72.1,63.0,30.10,WSW,258,3.5,3.5,73,0.00,BKN,FEW,0.00,WeatherDisplay:10.37,2013-08-14 18:01:00,
2013-08-14 19:06:00,72.0,62.8,30.10,West,280,5.8,5.8,73,0.00,BKN,FEW,0.00,WeatherDisplay:10.37,2013-08-14 18:06:00,
2013-08-14 19:11:00,71.6,62.5,30.10,ESE,122,5.8,5.8,73,0.00,BKN,FEW,0.00,WeatherDisplay:10.37,2013-08-14 18:11:00,
2013-08-14 19:16:00,71.6,62.5,30.10,WSW,258,2.7,2.8,73,0.00,BKN,FEW,0.00,WeatherDisplay:10.37,2013-08-14 18:16:00,
2013-08-14 19:21:00,71.4,62.3,30.09,ESE,122,3.5,3.5,73,0.00,BKN,FEW,0.00,WeatherDisplay:10.37,2013-08-14 18:21:00,
2013-08-14 19:26:00,71.4,62.3,30.09,SSE,168,2.8,2.8,73,0.00,BKN,FEW,0.00,WeatherDisplay:10.37,2013-08-14 18:26:00,
2013-08-14 19:31:00,71.2,62.1,30.09,ESE,122,1.2,1.3,73,0.00,BKN,FEW,0.00,WeatherDisplay:10.37,2013-08-14 18:31:00,
2013-08-14 19:36:00,71.1,62.0,30.09,WSW,258,3.5,3.5,73,0.00,BKN,FEW,0.00,WeatherDisplay:10.37,2013-08-14 18:36:00,
2013-08-14 19:41:00,70.9,61.8,30.09,WSW,258,3.5,3.5,73,0.00,BKN,FEW,0.00,WeatherDisplay:10.37,2013-08-14 18:41:00,
2013-08-14 19:47:00,70.9,61.8,30.09,WSW,258,3.5,3.5,73,0.00,BKN,FEW,0.00,WeatherDisplay:10.37,2013-08-14 18:47:00,
2013-08-14 19:52:00,70.7,62.0,30.09,ESE,122,4.0,4.0,74,0.00,BKN,FEW,0.00,WeatherDisplay:10.37,2013-08-14 18:52:00,
2013-08-14 19:57:00,70.7,62.0,30.09,WSW,258,2.8,2.8,74,0.00,BKN,FEW,0.00,WeatherDisplay:10.37,2013-08-14 18:57:00,
2013-08-14 20:02:00,70.5,61.8,30.09,ESE,122,2.4,2.5,74,0.00,BKN,FEW,0.00,WeatherDisplay:10.37,2013-08-14 19:02:00,
2013-08-14 20:08:00,70.3,61.7,30.09,SE,145,3.5,3.5,74,0.00,BKN,FEW,0.00,WeatherDisplay:10.37,2013-08-14 19:08:00,
2013-08-14 20:13:00,70.3,61.7,30.09,ESE,122,2.3,2.3,74,0.00,BKN,FEW,0.00,WeatherDisplay:10.37,2013-08-14 19:13:00,
2013-08-14 20:18:00,70.3,62.0,30.09,WSW,258,2.3,2.3,75,0.00,BKN,FEW,0.00,WeatherDisplay:10.37,2013-08-14 19:18:00,
2013-08-14 20:23:00,70.0,61.7,30.08,WSW,258,1.7,1.7,75,0.00,BKN,FEW,0.00,WeatherDisplay:10.37,2013-08-14 19:23:00,
2013-08-14 20:28:00,70.0,61.7,30.08,WSW,258,3.5,3.5,75,0.00,BKN,FEW,0.00,WeatherDisplay:10.37,2013-08-14 19:28:00,
2013-08-14 20:33:00,70.0,61.7,30.08,South,190,2.4,2.4,75,0.00,BKN,FEW,0.00,WeatherDisplay:10.37,2013-08-14 19:33:00,
2013-08-14 20:38:00,70.0,61.7,30.08,ESE,122,2.3,2.3,75,0.00,BKN,FEW,0.00,WeatherDisplay:10.37,2013-08-14 19:38:00,
2013-08-14 20:44:00,69.8,61.9,30.08,ESE,122,0.0,0.5,76,0.00,BKN,FEW,0.00,WeatherDisplay:10.37,2013-08-14 19:44:00,
2013-08-14 20:49:00,69.6,61.7,30.08,ESE,122,1.4,1.4,76,0.00,BKN,FEW,0.00,WeatherDisplay:10.37,2013-08-14 19:49:00,
2013-08-14 20:54:00,69.4,61.9,30.08,WSW,258,2.3,2.3,77,0.00,BKN,FEW,0.00,WeatherDisplay:10.37,2013-08-14 19:54:00,
2013-08-14 20:59:00,69.4,61.9,30.08,WSW,258,2.3,2.3,77,0.00,BKN,FEW,0.00,WeatherDisplay:10.37,2013-08-14 19:59:00,
2013-08-14 21:04:00,69.4,62.3,30.08,ESE,122,3.5,3.5,78,0.00,BKN,FEW,0.00,WeatherDisplay:10.37,2013-08-14 20:04:00,
2013-08-14 21:09:00,69.3,62.5,30.08,ENE,78,2.8,2.8,79,0.00,BKN,FEW,0.00,WeatherDisplay:10.37,2013-08-14 20:09:00,
2013-08-14 21:14:00,69.1,62.6,30.08,ESE,122,3.5,3.5,80,0.00,BKN,FEW,0.00,WeatherDisplay:10.37,2013-08-14 20:14:00,
2013-08-14 21:22:00,68.9,62.5,30.08,WSW,258,2.8,2.8,80,0.00,BKN,FEW,0.00,WeatherDisplay:10.37,2013-08-14 20:22:00,
2013-08-14 21:28:00,68.9,62.5,30.08,WSW,258,4.6,4.6,80,0.00,BKN,FEW,0.00,WeatherDisplay:10.37,2013-08-14 20:28:00,
2013-08-14 21:33:00,68.9,62.5,30.08,ESE,122,2.3,2.4,80,0.00,BKN,FEW,0.00,WeatherDisplay:10.37,2013-08-14 20:33:00,
2013-08-14 21:39:00,68.7,62.7,30.08,WSW,258,2.7,2.7,81,0.00,BKN,FEW,0.00,WeatherDisplay:10.37,2013-08-14 20:39:00,
2013-08-14 21:45:00,68.5,62.8,30.08,WSW,258,3.5,3.5,82,0.00,BKN,FEW,0.00,WeatherDisplay:10.37,2013-08-14 20:45:00,
2013-08-14 21:50:00,68.4,62.6,30.08,ESE,122,1.6,1.6,82,0.00,BKN,FEW,0.00,WeatherDisplay:10.37,2013-08-14 20:50:00,
2013-08-14 21:55:00,68.5,63.2,30.08,ESE,122,2.3,2.3,83,0.00,BKN,FEW,0.00,WeatherDisplay:10.37,2013-08-14 20:55:00,
2013-08-14 22:00:00,68.5,63.2,30.08,WSW,258,2.3,2.3,83,0.00,BKN,FEW,0.00,WeatherDisplay:10.37,2013-08-14 21:00:00,
2013-08-14 22:06:00,68.2,63.2,30.08,SE,145,2.3,2.3,84,0.00,-RA,FEW,0.00,WeatherDisplay:10.37,2013-08-14 21:06:00,
2013-08-14 22:11:00,68.2,63.2,30.08,WSW,258,0.0,0.4,84,0.00,-RA,FEW,0.00,WeatherDisplay:10.37,2013-08-14 21:11:00,
2013-08-14 22:16:00,67.8,63.1,30.08,SE,145,0.0,0.2,85,0.00,-RA,FEW,0.00,WeatherDisplay:10.37,2013-08-14 21:16:00,
2013-08-14 22:21:00,67.8,63.5,30.07,SE,145,0.0,0.1,86,0.00,-RA,FEW,0.00,WeatherDisplay:10.37,2013-08-14 21:21:00,
2013-08-14 22:26:00,67.5,63.5,30.07,SE,145,0.0,0.1,87,0.00,-RA,FEW,0.00,WeatherDisplay:10.37,2013-08-14 21:26:00,
2013-08-14 22:31:00,67.5,63.5,30.07,ESE,122,2.3,2.3,87,0.00,-RA,FEW,0.00,WeatherDisplay:10.37,2013-08-14 21:31:00,
2013-08-14 22:36:00,67.3,63.6,30.07,SE,145,3.5,3.5,88,0.00,-RA,FEW,0.00,WeatherDisplay:10.37,2013-08-14 21:36:00,
2013-08-14 22:41:00,67.3,63.6,30.07,SE,145,1.2,1.7,88,0.00,-RA,FEW,0.00,WeatherDisplay:10.37,2013-08-14 21:41:00,
2013-08-14 22:46:00,67.3,63.9,30.07,ESE,122,4.0,4.0,89,0.00,-RA,FEW,0.00,WeatherDisplay:10.37,2013-08-14 21:46:00,
2013-08-14 22:51:00,67.3,63.9,30.07,West,280,3.5,3.5,89,0.00,-RA,FEW,0.00,WeatherDisplay:10.37,2013-08-14 21:51:00,
2013-08-14 22:56:00,67.3,63.9,30.07,ESE,122,6.9,6.9,89,0.00,-RA,FEW,0.00,WeatherDisplay:10.37,2013-08-14 21:56:00,
2013-08-14 23:01:00,67.3,63.9,30.07,ESE,122,6.9,6.9,89,0.00,-RA,FEW,0.00,WeatherDisplay:10.37,2013-08-14 22:01:00,
2013-08-14 23:06:00,67.3,63.9,30.07,East,100,3.5,3.5,89,0.00,-RA,FEW,0.00,WeatherDisplay:10.37,2013-08-14 22:06:00,
2013-08-14 23:11:00,67.5,64.1,30.07,WSW,258,2.3,3.1,89,0.00,-RA,FEW,0.00,WeatherDisplay:10.37,2013-08-14 22:11:00,
2013-08-14 23:16:00,67.3,63.9,30.07,ESE,122,6.9,6.9,89,0.00,-RA,FEW,0.00,WeatherDisplay:10.37,2013-08-14 22:16:00,
2013-08-14 23:21:00,67.1,63.7,30.06,ESE,122,4.6,4.6,89,0.00,-RA,FEW,0.00,WeatherDisplay:10.37,2013-08-14 22:21:00,
2013-08-14 23:26:00,66.9,63.6,30.06,SE,145,8.1,8.1,89,0.00,-RA,FEW,0.00,WeatherDisplay:10.37,2013-08-14 22:26:00,
2013-08-14 23:32:00,67.1,63.7,30.06,WSW,258,6.2,6.2,89,0.00,-RA,FEW,0.00,WeatherDisplay:10.37,2013-08-14 22:32:00,
2013-08-14 23:37:00,67.1,63.4,30.06,WSW,258,6.0,6.0,88,0.00,-RA,FEW,0.00,WeatherDisplay:10.37,2013-08-14 22:37:00,
2013-08-14 23:42:00,66.7,63.4,30.06,WSW,258,6.9,6.9,89,0.00,-RA,FEW,0.00,WeatherDisplay:10.37,2013-08-14 22:42:00,
2013-08-14 23:47:00,66.7,63.4,30.06,ESE,122,3.5,3.5,89,0.00,-RA,FEW,0.00,WeatherDisplay:10.37,2013-08-14 22:47:00,
2013-08-14 23:52:00,66.6,63.2,30.06,West,280,3.5,3.5,89,0.00,-RA,FEW,0.00,WeatherDisplay:10.37,2013-08-14 22:52:00,
2013-08-14 23:57:00,66.6,63.2,30.06,WSW,258,2.3,2.8,89,0.00,-RA,FEW,0.00,WeatherDisplay:10.37,2013-08-14 22:57:00,